Regional Weather Roundup
Issued by NWS

Home | Current Version | Previous Version | Text Only | Print | Product List | Glossary Off
Versions: 1 2 3 4 5 6 7 8 9 10 11 12 13 14 15 16 17 18 19 20 21 22 23 24 25 26 27 28 29 30 31 32 33 34 35 36 37 38 39 40 41 42 43 44 45 46 47 48 49 50

000
ASUS45 KBOU 200207
RWRCO

WEATHER ROUNDUP FOR COLORADO
NATIONAL WEATHER SERVICE DENVER/BOULDER CO
700 PM MST THU JAN 19 2017

NOTE: "FAIR" INDICATES FEW OR NO CLOUDS BELOW 12000 FEET WITH NO
SIGNIFICANT WEATHER AND/OR OBSTRUCTIONS TO VISIBILITY.

COZ001>005-013-030-031-200300-
...NORTHWEST COLORADO...

CITY           SKY/WX    TMP DP  RH WIND       PRES   REMARKS
CRAIG          LGT SNOW  27  24  89 E5        29.71F FOG     WCI  22
HAYDEN         CLOUDY    25  21  86 SE6       29.70F WCI  18
MEEKER         LGT SNOW  31  30  96 CALM      29.70F FOG
MOUNT WERNER   NOT AVBL
STEAMBOAT SPGS CLOUDY    23  15  73 CALM      29.70S
WALDEN           N/A     23  18  80 SW6       29.67S WCI  16
$$

COZ006>008-011-200300-
...WEST CENTRAL VALLEYS...

CITY           SKY/WX    TMP DP  RH WIND       PRES   REMARKS
GRAND JUNCTION LGT SNOW  32  32 100 SE5       29.74S FOG     WCI  27
MONTROSE       LGT SNOW  32  32 100 CALM      29.75F FOG
EAGLE          LGT SNOW  28  23  80 CALM      29.75R
RIFLE          LGT SNOW  31  31 100 CALM      29.74F FOG
DELTA          LGT RAIN  36  34  92 NE3       29.76S
NUCLA          CLOUDY    32  32 100 E6        29.77F WCI  26
$$

COZ017>023-064>068-200300-
...SOUTHWEST COLORADO...

CITY           SKY/WX    TMP DP  RH WIND       PRES   REMARKS
DURANGO        LGT SNOW  30  28  92 E6        29.77F FOG     WCI  24
CORTEZ         LGT SNOW  32  32 100 SW5       29.78R FOG     WCI  27
PAGOSA SPRINGS LGT SNOW  30  30  99 S5        29.80S WCI  25
TELLURIDE      NOT AVBL
WOLF CREEK PAS CLOUDY    14  14 100 S15G22    29.79S WCI  -1
$$

COZ009-010-012-014-032>034-037-058>063-200300-
...CENTRAL COLORADO...

CITY           SKY/WX    TMP DP  RH WIND       PRES   REMARKS
ASPEN          LGT SNOW  28  26  92 CALM      29.71S FOG
BUENA VISTA    CLOUDY    28  18  64 S3        29.67R
COPPER MTN     MOCLDY    19  14  79 MISG      29.70S
BERTHOUD PASS  NOT AVBL
COTTONWOOD PAS CLOUDY    32  19  59 W16G28    29.67S WCI  21
GUNNISON       FLURRIES  13   9  84 NE7       29.79F WCI   3
KREMMLING      CLOUDY    19  12  73 CALM      29.73F
LEADVILLE      LGT SNOW  21  15  78 N9        29.68R VSB 1   WCI  11
MONARCH PASS   SNOW      16  12  86 W26G33    29.80S VSB 1/4 WCI  -3
SALIDA         CLOUDY    35  19  50 S21G36    29.73R WCI  24
SUNLIGHT       LGT SNOW  19  18  93 S10       29.74F WCI   8
WILKERSON PASS FAIR      23  12  63 W9        29.69F WCI  13
$$

COZ069>075-200300-
...SAN LUIS VALLEY/SANGRE DE CRISTO MOUNTAINS...

CITY           SKY/WX    TMP DP  RH WIND       PRES   REMARKS
ALAMOSA        CLOUDY    20  20 100 N5        29.75S FOG     WCI  13
LA VETA PASS   NOT AVBL
SAGUACHE       FLURRIES  23  21  93 SE7       29.76R WCI  15
$$

COZ035-036-038>040-200300-
...NORTHERN COLORADO FRONT RANGE...

CITY           SKY/WX    TMP DP  RH WIND       PRES   REMARKS
DENVER INTL AP FAIR      35  21  56 SE9       29.52S WCI  28
DMNS CITY PARK   N/A     38  21  50 NE2       29.52S
AURORA         PTCLDY    33  21  63 SE10      29.53S WCI  24
FRONT RANGE AP NOT AVBL
ERIE MUNI ARPT FAIR      32  24  72 CALM      29.53S
BOULDER MUN AP FAIR      41  23  48 W6        29.53S
CENTENNIAL     FAIR      41  18  39 SE7       29.53R
BROOMFIELD     PTCLDY    45  19  36 NW6       29.54S
FORT COLLINS   FAIR      36  25  64 S5        29.53S
LONGMONT       FAIR      37  24  61 W5        29.55S
$$

COZ041-046-047-076>085-087-088-200300-
...PIKES PEAK/PALMER DIVIDE AND SOUTHERN FOOTHILLS...

CITY           SKY/WX    TMP DP  RH WIND       PRES   REMARKS
COLO. SPRINGS  FAIR      35  18  49 W6        29.55S WCI  30
A. F. ACADEMY  FAIR      27  14  56 N5        29.54F WCI  22
SCHRIEVER AFB  NOT AVBL
ELLICOTT       FAIR     N/A N/A N/A NE5       29.53S
FALCON         FAIR      30  15  52 W7        29.56F WCI  24
FORT CARSON    CLEAR     39  19  45 W7        29.55R
LIMON          FAIR      21  20  96 N8        29.53F WCI  11
MONUMENT HILL  FAIR      30  18  59 SE5       29.56F WCI  25
TRINIDAD       FAIR      30  20  66 NW13      29.53F WCI  20
$$

COZ042>045-048>051-090-091-200300-
...NORTHEAST COLORADO...

CITY           SKY/WX    TMP DP  RH WIND       PRES   REMARKS
GREELEY ARPT   FAIR      29  25  85 N3        29.53S
AKRON          FAIR      38  22  52 S5        29.52R
BURLINGTON     FOG       32  31  96 S10       29.54S VSB 1/4 WCI  24
WRAY           NOT AVBL
STERLING       FAIR      32  27  80 CALM      29.51R
HOLYOKE        FAIR      34  30  86 SW3       29.54R
FORT MORGAN    FAIR      40  21  46 CALM      29.53F
$$

COZ086-089-092>099-200300-
...SOUTHEAST COLORADO...

CITY           SKY/WX    TMP DP  RH WIND       PRES   REMARKS
PUEBLO         FAIR      38  26  62 N6        29.50S
LA JUNTA       FAIR      36  26  67 S3        29.51S
LAMAR          FAIR      31  24  75 SE12      29.52F WCI  22
SPRINGFIELD      N/A     32  27  81 SE7       29.54S WCI  26
$$



USA.gov is the U.S. government's official web portal to all federal, state and local government web resources and services.